Location: Boston
(42.3580°N, 71.0600°W)
Time: 17:36:45
(UTC-04:00)

OTV 5 (USA 277) - Pass Details

Date: 10 October 2017
Orbit: 404 x 417 km, 43.0° (Epoch: 07 September)

Event Time Altitude Azimuth Distance (km) Brightness Sun altitude
Rises 19:43:38 0° 239° (WSW) 2,347 ? -18.1°
Reaches altitude 10° 19:45:47 10° 234° (SW) 1,486 ? -18.5°
Enters shadow 19:48:51 47° 170° (S) 561 ? -19.1°
